933  
ASUS44 KOHX 250110  
RWROHX  
MIDDLE TENNESSEE HOURLY WEATHER ROUNDUP  
NATIONAL WEATHER SERVICE NASHVILLE TN  
800 PM CDT MON SEP 24 2018  
 
NOTE: "FAIR" INDICATES FEW OR NO CLOUDS BELOW 12,000 FEET WITH  
NO SIGNIFICANT WEATHER AND/OR S TO VISIBILITY
.  
 
* THESE REPORTS ARE NOT UNDER NWS QUALITY CONTROL AND MAY NOT  
REPORT WEATHER SUCH AS PRECIPITATION AND FOG.
 
 
 
TNZ005>011-023>034-057-059-062>066-078-080-250200   
..NORTHERN MIDDLE TENNESSEE
 
 
 
CITY SKY/WX TMP DP RH WIND PRES REMARKS
 
CLARKSVILLE CLOUDY 73 69 87 SE7 29.98S  
CROSSVILLE LGT RAIN 67 66 97 CALM 30.13R  
DICKSON CLEAR 73 72 94 S5 30.00R  
GALLATIN MOCLDY 72 70 94 SE7 30.05S  
LEBANON MOCLDY 72 70 94 S5 30.01S  
LIVINGSTON CLOUDY 70 68 94 VRB5 30.08S FOG  
NASHVILLE MOCLDY 72 70 93 SE8 30.03S  
PORTLAND CLOUDY 72 70 94 SE8 30.02S  
ROCKWOOD CLOUDY 66 N/A N/A VRB3 30.14R FOG  
SMYRNA N/A 71 71 100 SE6 30.04S THUNDER  
SPARTA CLOUDY 70 70 100 SW5 30.09R FOG  
SPRINGFIELD CLOUDY 72 72 100 SE6G14 30.00R  
WEST NASHVILLE PTCLDY 73 72 94 SE7 30.00R  

 
TNZ056-058-060-061-075>077-079-093>097-250200   
..SOUTHERN MIDDLE TENNESSEE
 
 
 
CITY SKY/WX TMP DP RH WIND PRES REMARKS
 
COLUMBIA CLOUDY 75 75 100 SE5 30.00R  
FAYETTEVILLE CLOUDY 72 72 100 S9G20 30.05R FOG  
LAWRENCEBURG CLOUDY 73 72 94 E5 30.02S  
LEWISBURG MOCLDY 72 72 100 CALM 30.02S  
MCMINNVILLE CLOUDY 72 72 100 CALM 30.07R FOG  
MURFREESBORO CLOUDY 72 72 100 SE5 30.03R  
PULASKI CLOUDY 75 75 100 CALM 30.02R  
SHELBYVILLE CLOUDY 73 72 94 SE6 30.04R  
TULLAHOMA MOCLDY 72 70 94 SE7 30.06R  
WINCHESTER CLOUDY 73 72 94 SE7 30.07R  

 
 
   
..KEY TO REMARKS
 
 
VSB - VISIBILITY IN MILES  
WCI - WIND CHILL INDEX  
HX - HEAT INDEX  
 
 
 
CLICK HERE TO GO TO PREVIOUS BULLETINS.

The Nexlab TN Page Main Text Page